Stündliche Wetter Labunschina

Heute, 11 Mai, Dienstag

Zeit Temperatur Niederschläge Wind Luftdruck Luftfeuchtigkeit
00:00 +8°C° 0 mm 3 m/S 743 mmHg 81%
01:00 +7°C° 0 mm 3 m/S 743 mmHg 80%
02:00 +7°C° 0 mm 3 m/S 743 mmHg 80%
03:00 +7°C° 0 mm 3 m/S 743 mmHg 79%
04:00 +7°C° 0 mm 3 m/S 743 mmHg 77%
05:00 +6°C° 0 mm 2 m/S 743 mmHg 76%
06:00 +8°C° 0 mm 3 m/S 743 mmHg 72%
07:00 +10°C° 0 mm 3 m/S 743 mmHg 67%
08:00 +12°C° 0 mm 4 m/S 743 mmHg 62%
09:00 +13°C° 0 mm 4 m/S 743 mmHg 57%
10:00 +15°C° 0 mm 4 m/S 743 mmHg 53%
11:00 +17°C° 0 mm 4 m/S 743 mmHg 48%
12:00 +18°C° 0 mm 4 m/S 743 mmHg 46%
13:00 +19°C° 0 mm 4 m/S 743 mmHg 45%
14:00 +19°C° 0 mm 4 m/S 742 mmHg 43%
15:00 +19°C° 0 mm 4 m/S 742 mmHg 45%
16:00 +19°C° 0 mm 4 m/S 742 mmHg 48%
17:00 +19°C° 0 mm 4 m/S 742 mmHg 51%
18:00 +17°C° 0 mm 3 m/S 741 mmHg 59%
19:00 +13°C° 0 mm 3 m/S 741 mmHg 67%
20:00 +11°C° 0 mm 3 m/S 741 mmHg 75%
21:00 +11°C° 0 mm 3 m/S 741 mmHg 78%
22:00 +10°C° 0 mm 3 m/S 741 mmHg 82%
23:00 +10°C° 0 mm 3 m/S 741 mmHg 86%

Morgen, 12 Mai, Mittwoch

Zeit Temperatur Niederschläge Wind Luftdruck Luftfeuchtigkeit
00:00 +10°C° 0 mm 3 m/S 741 mmHg 88%
01:00 +10°C° 0 mm 3 m/S 741 mmHg 91%
02:00 +9°C° 0 mm 3 m/S 740 mmHg 93%
03:00 +9°C° 0 mm 3 m/S 740 mmHg 94%
04:00 +9°C° 0 mm 3 m/S 741 mmHg 96%
05:00 +8°C° 0 mm 4 m/S 741 mmHg 97%
06:00 +10°C° 0 mm 4 m/S 741 mmHg 87%
07:00 +10°C° 0 mm 5 m/S 741 mmHg 78%
08:00 +11°C° 0 mm 6 m/S 741 mmHg 68%
09:00 +13°C° 0 mm 6 m/S 741 mmHg 63%
10:00 +14°C° 0 mm 6 m/S 741 mmHg 59%
11:00 +14°C° 0 mm 6 m/S 741 mmHg 55%
12:00 +15°C° 0 mm 6 m/S 740 mmHg 53%
13:00 +16°C° 0 mm 6 m/S 740 mmHg 52%
14:00 +16°C° 0 mm 6 m/S 740 mmHg 51%
15:00 +16°C° 0 mm 5 m/S 739 mmHg 52%
16:00 +17°C° 0 mm 4 m/S 739 mmHg 52%
17:00 +17°C° 0 mm 4 m/S 738 mmHg 53%
18:00 +14°C° 0 mm 3 m/S 738 mmHg 59%
19:00 +13°C° 0 mm 3 m/S 738 mmHg 66%
20:00 +12°C° 0 mm 2 m/S 737 mmHg 72%
21:00 +12°C° 0 mm 2 m/S 736 mmHg 73%
22:00 +12°C° 0 mm 1 m/S 736 mmHg 74%
23:00 +12°C° 0 mm 1 m/S 735 mmHg 74%

übermorgen, 13 Mai, Donnerstag

Zeit Temperatur Niederschläge Wind Luftdruck Luftfeuchtigkeit
00:00 +11°C° 1.2 mm 1 m/S 734 mmHg 82%
01:00 +10°C° 1.2 mm 1 m/S 734 mmHg 89%
02:00 +9°C° 1.2 mm 2 m/S 733 mmHg 97%
03:00 +9°C° 1.3 mm 2 m/S 733 mmHg 96%
04:00 +9°C° 1.3 mm 3 m/S 733 mmHg 96%
05:00 +8°C° 1.3 mm 3 m/S 733 mmHg 96%
06:00 +9°C° 0.1 mm 3 m/S 733 mmHg 94%
07:00 +9°C° 0.1 mm 3 m/S 732 mmHg 91%
08:00 +9°C° 0.1 mm 3 m/S 732 mmHg 89%
09:00 +9°C° 0.7 mm 3 m/S 732 mmHg 89%
10:00 +9°C° 0.7 mm 3 m/S 732 mmHg 89%
11:00 +7°C° 0.7 mm 4 m/S 732 mmHg 89%
12:00 +8°C° 0.6 mm 4 m/S 732 mmHg 88%
13:00 +8°C° 0.6 mm 4 m/S 732 mmHg 86%
14:00 +9°C° 0.6 mm 5 m/S 732 mmHg 84%
15:00 +8°C° 0.4 mm 4 m/S 732 mmHg 86%
16:00 +8°C° 0.4 mm 4 m/S 732 mmHg 89%
17:00 +9°C° 0.4 mm 3 m/S 732 mmHg 91%
18:00 +8°C° 0.1 mm 3 m/S 732 mmHg 91%
19:00 +7°C° 0.1 mm 4 m/S 732 mmHg 91%
20:00 +7°C° 0.1 mm 4 m/S 732 mmHg 91%
21:00 +7°C° 0.4 mm 4 m/S 732 mmHg 92%
22:00 +7°C° 0.4 mm 4 m/S 732 mmHg 94%
23:00 +7°C° 0.4 mm 4 m/S 731 mmHg 95%

14 Mai, Freitag

Zeit Temperatur Niederschläge Wind Luftdruck Luftfeuchtigkeit
00:00 +7°C° 1.6 mm 5 m/S 731 mmHg 96%
01:00 +7°C° 1.6 mm 5 m/S 731 mmHg 96%
02:00 +8°C° 1.6 mm 5 m/S 730 mmHg 96%
03:00 +8°C° 0.4 mm 5 m/S 730 mmHg 96%
04:00 +8°C° 0.4 mm 5 m/S 730 mmHg 96%
05:00 +8°C° 0.4 mm 6 m/S 730 mmHg 96%
06:00 +8°C° 0 mm 6 m/S 730 mmHg 95%
07:00 +9°C° 0 mm 6 m/S 730 mmHg 95%
08:00 +9°C° 0 mm 6 m/S 730 mmHg 94%
09:00 +10°C° 0.1 mm 6 m/S 730 mmHg 93%
10:00 +11°C° 0.1 mm 6 m/S 730 mmHg 91%
11:00 +11°C° 0.1 mm 6 m/S 730 mmHg 90%
12:00 +11°C° 0.1 mm 6 m/S 730 mmHg 89%
13:00 +13°C° 0.1 mm 5 m/S 730 mmHg 87%
14:00 +13°C° 0.1 mm 5 m/S 730 mmHg 86%
15:00 +14°C° 0.1 mm 4 m/S 730 mmHg 83%
16:00 +15°C° 0.1 mm 4 m/S 730 mmHg 79%
17:00 +17°C° 0.1 mm 3 m/S 730 mmHg 76%
18:00 +14°C° 0.1 mm 3 m/S 730 mmHg 81%
19:00 +14°C° 0.1 mm 2 m/S 730 mmHg 86%
20:00 +13°C° 0.1 mm 2 m/S 730 mmHg 90%
21:00 +12°C° 0 mm 2 m/S 730 mmHg 91%
22:00 +12°C° 0 mm 2 m/S 730 mmHg 92%
23:00 +11°C° 0 mm 1 m/S 730 mmHg 93%

15 Mai, Samstag

Zeit Temperatur Niederschläge Wind Luftdruck Luftfeuchtigkeit
00:00 +11°C° 0 mm 1 m/S 730 mmHg 93%
01:00 +11°C° 0 mm 1 m/S 730 mmHg 93%
02:00 +10°C° 0 mm 1 m/S 730 mmHg 93%
03:00 +11°C° 0 mm 1 m/S 730 mmHg 92%
04:00 +11°C° 0 mm 1 m/S 730 mmHg 92%
05:00 +11°C° 0 mm 1 m/S 730 mmHg 92%
06:00 +11°C° 0 mm 1 m/S 730 mmHg 91%
07:00 +12°C° 0 mm 1 m/S 731 mmHg 90%
08:00 +12°C° 0 mm 1 m/S 731 mmHg 89%
09:00 +13°C° 0 mm 1 m/S 731 mmHg 86%
10:00 +13°C° 0 mm 2 m/S 731 mmHg 83%
11:00 +14°C° 0 mm 2 m/S 731 mmHg 80%
12:00 +15°C° 0.1 mm 2 m/S 731 mmHg 76%
13:00 +16°C° 0.1 mm 3 m/S 731 mmHg 72%
14:00 +17°C° 0.1 mm 3 m/S 731 mmHg 68%
15:00 +16°C° 0.2 mm 3 m/S 731 mmHg 70%
16:00 +16°C° 0.2 mm 3 m/S 731 mmHg 72%
17:00 +15°C° 0.2 mm 4 m/S 731 mmHg 75%
18:00 +14°C° 0.1 mm 3 m/S 731 mmHg 80%
19:00 +12°C° 0.1 mm 3 m/S 731 mmHg 85%
20:00 +11°C° 0.1 mm 3 m/S 732 mmHg 91%
21:00 +12°C° 0 mm 2 m/S 732 mmHg 91%
22:00 +10°C° 0 mm 2 m/S 732 mmHg 92%
23:00 +10°C° 0 mm 2 m/S 732 mmHg 93%

16 Mai, Sonntag

Zeit Temperatur Niederschläge Wind Luftdruck Luftfeuchtigkeit
00:00 +10°C° 0 mm 2 m/S 732 mmHg 91%
01:00 +10°C° 0 mm 2 m/S 732 mmHg 89%
02:00 +10°C° 0 mm 2 m/S 733 mmHg 88%
03:00 +10°C° 0 mm 2 m/S 733 mmHg 88%
04:00 +10°C° 0 mm 2 m/S 733 mmHg 88%
05:00 +10°C° 0 mm 2 m/S 733 mmHg 88%
06:00 +12°C° 0 mm 2 m/S 733 mmHg 87%
07:00 +12°C° 0 mm 2 m/S 734 mmHg 87%
08:00 +12°C° 0 mm 3 m/S 734 mmHg 86%
09:00 +13°C° 0.4 mm 3 m/S 734 mmHg 80%
10:00 +14°C° 0.4 mm 3 m/S 734 mmHg 74%
11:00 +16°C° 0.4 mm 3 m/S 734 mmHg 69%
12:00 +17°C° 0.6 mm 3 m/S 734 mmHg 67%
13:00 +17°C° 0.6 mm 4 m/S 734 mmHg 66%
14:00 +18°C° 0.6 mm 4 m/S 734 mmHg 64%
15:00 +18°C° 0.3 mm 4 m/S 734 mmHg 65%
16:00 +17°C° 0.3 mm 3 m/S 735 mmHg 66%
17:00 +17°C° 0.3 mm 3 m/S 735 mmHg 68%
18:00 +16°C° 0.1 mm 2 m/S 735 mmHg 73%
19:00 +14°C° 0.1 mm 2 m/S 735 mmHg 79%
20:00 +13°C° 0.1 mm 1 m/S 735 mmHg 84%
21:00 +12°C° 0 mm 1 m/S 735 mmHg 85%
22:00 +12°C° 0 mm 1 m/S 735 mmHg 85%
23:00 +10°C° 0 mm 0 m/S 735 mmHg 86%
Mehr zeigen

Wir brauchen deine Erlaubnis

Meteoprog und unser Service Anbieter werden persönliche Daten aufbewahren, so wie Cookies, Geräte Bezeichnung oder ähnliche Technologien von deinem Gerät und Prozess, so wie Persönliche Daten Inhalte und Werbungen, genauso wie social Media und den Verkehr zu analysieren.

  • Aufbewahrung und/oder Zugang zu deiner Geräte Informationen.

    Cookies, Geräte Bezeichnung oder andere Informationen, können aufbewahrt oder Zugang zu deinem Gerät erhalten, für den Grund, der oben angegeben wird.

  • Personalisierte Werbung und Inhalte, Messungen, Einblick in das Publikum und Produkt Entwicklung.

    Werbungen und Inhalte können personalisiert werden, basierend auf ein Profil. Mehr Daten können besser personalisierte Werbungen und Inhalte hinzufügen. Werbung und Inhalte können gezeigt und gemessen werden. Einblicke über das Publikum, welche die Werbung gesehen haben und den Inhalt, können abgeleitet werden. So wie Daten können genutzt werden, um es zu verbessern oder die Benutzer Erfahrung zu verbessern das System und die Software.

Wenn du “Ich stimme zu” klickst, erlaubst du uns, die Cookies zu benutzen die Geräte Bezeichnung, den Web oder ähnliche Technologien zu benutzen. Deine Settings, können in deinem Gerät bei deinem Browser geändert werden.

Für den bestimmten Zweck, berechtigten Interessen beruhen darauf, mehr als auf den Inhalt. Du kannst mehr darüber in unseren Privaten und Cookie Politik lesen.